CUBEBUG-2 (LO-74) (39440 NORAD) Tracking and Keplerian Element Data

This shows tracking and keplerian element data for the satellite.

Feedback or suggestion? Click here.




ElementValue
Catalog39440
NameCUBEBUG-2 (LO-74)
Epoch Orbit48461
Epoch Day325.12611586
Epoch Year2022
RAAN276.2961
Inclination97.7465
Eccentricity0.0077613
Argument of Perigee344.4263
Mean Anonmoly15.456
Mean Motion14.77609861
Decay Rate2.254E-05
L11 39440U 13066AA 22325.12611586 .00002254 00000+0 30714-3 0 9990
L22 39440 97.7465 276.2961 0077613 344.4263 15.4560 14.77609861484616



Live tracking and technical data element details for CUBEBUG-2 (LO-74) (NORAD 39440). CUBEBUG-2 (LO-74) can be tracked NOW for your location showing map with azimuth and elevation plus other details from your city location.







IsCatalogInMostPopularTable: catalog: 39440, numindb: 590
Update: records affected: 1



GetName: 39440 CUBEBUG-2 (LO-74)

Hit Count: updated at: Mon, 28 Nov 2022 04:52:50 GMT